Wind_Speed
17 17 16 16 16 17 16 14 14 13 14 14 13 12 11 11 10 9 8 7 6 7 7 7 7 7 7 8 8 8 7 7 7 7 7 7 7 7 7 7 7 7 7 8
17 16 16 17 18 18 17 15 14 15 15 15 14 13 13 13 12 10 9 8 8 7 7 8 8 8 8 8 8 8 7 7 7 7 7 7 8 8 7 8 8 8 8 8
17 17 17 17 18 18 17 16 15 15 16 16 16 15 14 14 13 12 10 9 9 9 8 8 7 7 8 9 9 9 8 8 7 8 8 8 8 8 8 8 9 9 8 8
19 18 18 17 17 17 17 17 17 17 17 16 17 16 15 15 14 13 11 10 9 9 9 9 9 8 9 9 10 9 9 9 8 8 9 9 9 9 9 9 10 9 10 10
19 19 19 18 17 17 16 18 19 19 19 19 18 18 15 16 14 14 12 11 11 10 10 11 11 11 11 11 11 10 10 10 10 9 9 9 9 10 10 10 10 11 11 12
20 20 19 18 18 18 18 18 19 20 21 20 18 19 17 17 15 14 13 13 13 13 12 12 12 12 12 12 11 11 11 11 11 10 10 10 10 10 11 12 12 11 12 12
20 21 20 19 19 19 19 19 19 20 22 21 20 21 19 18 17 15 15 14 15 15 14 14 14 13 13 13 12 12 12 12 11 11 12 12 12 12 13 13 13 13 13 14
21 21 21 20 20 19 19 19 20 21 22 21 22 22 20 18 17 16 16 16 16 16 16 16 16 15 14 14 14 14 13 13 13 14 14 15 14 14 15 15 15 15 14 14
21 21 21 21 20 20 20 21 21 22 23 23 23 22 21 19 17 17 17 17 17 17 17 17 17 16 16 16 15 14 14 14 14 15 15 15 15 15 15 16 16 17 17 16
22 22 21 22 22 22 22 21 22 23 24 24 24 22 20 19 19 18 18 18 17 17 17 17 17 16 15 15 15 15 15 14 14 15 16 16 16 16 17 17 18 18 18 18
23 23 23 23 24 24 23 24 24 24 24 24 24 22 19 18 18 18 18 18 18 18 18 17 17 16 15 15 16 16 16 16 16 16 16 17 18 18 18 19 19 19 19 19
25 25 25 24 24 25 25 25 25 25 25 25 24 22 19 18 17 17 18 19 19 19 18 17 17 17 17 17 17 17 17 17 16 17 17 18 19 20 21 21 20 20 20 20
26 27 26 26 26 26 26 26 26 26 26 26 25 23 20 19 19 18 19 20 19 18 18 18 18 18 18 18 18 18 17 18 18 18 18 19 19 21 21 21 21 21 21 21
27 27 27 27 26 26 26 26 26 26 26 26 25 23 21 20 20 20 20 20 20 19 19 19 19 19 19 20 20 18 18 19 19 18 19 20 20 21 22 21 21 21 22 22
29 28 28 27 27 27 27 27 26 27 27 27 25 24 22 22 21 21 21 22 21 21 20 20 19 19 19 19 19 20 20 20 20 19 19 19 20 21 22 22 22 22 23 23
29 29 29 29 28 28 28 27 28 28 28 28 28 26 24 23 23 23 23 22 22 21 21 20 20 20 20 20 20 20 21 20 20 20 19 19 20 21 21 22 22 23 23 24
27 28 29 29 29 29 30 29 30 30 29 29 29 28 27 26 25 24 24 23 22 23 23 22 21 22 22 21 21 21 21 21 21 21 20 20 21 22 22 23 23 23 23 23
28 28 29 30 29 31 30 30 31 32 31 30 29 28 28 27 26 25 25 24 24 24 25 24 24 24 23 23 23 23 22 22 22 22 22 21 22 22 23 23 24 24 24 24
28 28 29 29 30 30 29 29 29 30 30 29 28 27 27 27 26 26 25 26 25 26 27 26 25 24 24 24 24 24 24 24 23 23 22 22 22 23 24 24 24 24 25 25
28 27 27 28 29 29 27 28 28 28 27 27 27 27 27 27 27 26 26 26 26 26 26 26 26 25 25 25 25 25 26 26 26 25 24 24 24 25 25 25 25 25 25 26
28 28 28 27 28 28 27 28 28 28 26 26 27 27 28 28 28 28 27 26 26 25 25 26 26 25 25 26 26 27 28 28 27 27 27 27 27 26 27 27 26 26 26 27
28 29 29 28 27 26 27 28 28 29 28 27 27 27 27 27 27 28 28 27 27 27 26 26 26 26 27 28 29 29 29 29 29 29 29 29 29 28 28 28 28 28 28 29
28 29 29 27 26 25 26 28 28 29 28 28 28 28 28 28 28 29 29 28 28 27 27 28 28 28 28 29 30 30 31 30 30 30 30 30 30 30 30 30 29 29 29 29
28 29 29 28 26 26 26 27 27 28 28 28 29 29 29 30 29 29 29 29 28 28 28 28 29 29 30 30 31 32 33 32 32 32 31 31 31 31 31 31 31 30 30 30
27 28 29 29 28 28 28 28 28 28 29 29 28 30 30 30 30 30 30 30 30 29 29 29 29 30 31 32 33 33 33 33 33 33 33 32 32 32 32 32 32 32 32 32
26 28 28 28 29 30 29 28 28 28 28 29 30 29 29 29 29 30 30 30 30 30 31 31 31 31 32 33 33 33 33 33 34 34 34 33 32 32 33 33 33 33 32 32
Wind_Direction
236 238 237 238 238 240 240 240 239 238 244 249 252 257 261 264 266 264 264 262 268 282 290 293 296 294 292 296 299 287 282 280 270 267 267 269 276 285 285 281 286 288 287 283
235 234 236 238 239 239 239 238 239 239 246 250 252 255 256 262 263 263 262 260 265 274 284 289 290 290 290 295 299 293 279 275 266 264 264 267 273 279 282 277 276 282 287 287
235 234 236 237 236 236 237 238 240 244 249 253 252 253 256 258 260 263 261 262 267 270 276 284 290 289 292 296 297 294 284 277 268 260 261 269 278 281 284 277 275 282 287 290
232 232 233 235 236 236 235 238 239 243 248 252 254 256 255 258 261 265 265 264 264 271 273 275 280 286 291 297 298 290 283 279 276 269 264 265 278 280 282 278 274 281 285 286
231 231 234 234 236 237 237 239 243 245 248 252 257 260 260 260 263 264 264 261 261 267 272 273 276 282 286 291 293 287 282 280 277 271 266 267 273 275 276 274 273 280 285 284
229 230 233 233 234 235 238 241 244 246 249 254 256 261 263 265 265 265 263 261 262 265 269 270 273 279 283 287 288 283 280 280 275 270 266 270 272 272 274 274 273 278 282 282
229 231 232 232 233 236 240 244 246 248 251 257 260 263 266 269 266 263 261 261 262 263 266 269 272 278 282 283 283 281 281 280 277 275 270 270 270 272 275 276 278 279 279 279
234 234 234 234 235 239 243 248 251 255 258 260 260 264 269 272 267 265 265 264 264 264 267 270 271 274 278 281 280 277 279 278 277 277 274 273 273 273 274 274 276 278 278 278
238 238 236 237 237 241 244 247 252 256 259 261 261 264 266 270 271 271 270 268 268 269 265 268 270 271 275 278 279 278 276 277 277 278 276 272 274 274 274 274 275 276 276 277
239 239 237 238 240 241 244 246 248 253 257 259 262 264 267 269 271 270 271 269 269 268 265 269 272 276 276 277 279 277 275 278 281 278 276 275 275 275 274 275 276 276 275 274
238 241 241 241 241 244 245 246 249 254 258 261 263 265 267 270 271 267 266 266 267 269 270 271 273 277 276 276 278 280 279 280 281 278 276 277 277 275 276 276 276 275 275 273
238 241 242 242 243 244 246 248 251 253 257 260 264 265 265 267 268 265 263 264 267 272 273 272 273 274 273 273 274 276 279 278 281 281 279 278 279 277 277 275 273 273 273 274
238 240 241 240 241 243 244 246 249 253 257 259 261 264 265 267 267 267 266 264 267 271 273 271 272 273 269 270 273 274 276 279 281 283 281 279 278 278 277 273 271 272 273 273
239 241 242 244 245 246 247 247 249 253 256 258 260 263 265 267 268 268 266 265 268 270 271 272 272 272 272 270 273 276 277 280 283 285 284 281 279 278 278 274 273 274 274 274
241 242 243 243 244 246 248 250 251 253 256 258 260 262 264 267 268 268 267 267 268 269 270 271 272 272 272 273 274 275 278 280 282 283 285 282 280 278 277 274 274 276 274 272
243 244 245 245 246 247 248 249 251 254 256 258 260 262 264 267 268 268 267 268 268 270 273 274 272 269 271 273 276 279 278 280 282 283 282 282 282 280 280 277 276 277 275 274
246 248 248 248 248 249 249 249 251 255 257 259 260 261 263 265 267 266 268 270 270 272 274 274 272 268 267 271 274 277 279 281 281 282 281 281 281 281 280 279 278 278 277 276
249 250 251 252 251 251 252 251 253 256 258 260 260 259 261 263 265 265 268 272 273 272 270 271 271 270 270 271 273 276 278 279 280 281 284 282 280 280 280 279 278 277 277 278
249 251 253 253 252 253 253 253 256 258 258 260 260 259 259 260 261 263 267 269 272 272 269 268 268 269 271 273 274 275 276 279 281 282 283 284 284 282 281 280 279 279 278 278
249 251 254 255 255 255 257 258 258 258 258 260 261 259 258 259 260 262 264 266 269 269 267 266 267 269 270 272 275 276 278 280 283 284 284 284 285 284 283 282 281 278 277 277
249 250 253 255 257 257 258 259 258 258 259 260 261 260 258 258 259 261 262 264 266 266 266 267 267 268 270 272 275 277 279 281 283 283 283 284 283 282 281 281 280 278 278 277
251 252 253 254 257 258 260 260 259 259 261 261 261 260 259 260 260 260 261 263 264 264 264 266 267 270 271 272 274 276 278 279 281 282 283 282 282 282 280 279 279 278 278 278
252 252 253 256 259 260 260 261 260 259 260 260 260 259 258 260 259 259 260 261 262 263 264 265 268 271 273 273 274 275 275 276 278 279 281 282 282 282 280 278 278 278 277 277
254 253 254 256 260 259 259 261 261 259 259 259 258 259 259 260 259 259 260 261 262 263 264 266 268 271 274 275 275 275 275 276 277 277 279 280 280 281 281 280 279 278 277 277
256 256 256 257 259 260 261 261 262 260 258 259 261 260 259 260 261 259 258 260 261 262 263 267 271 272 274 275 275 275 275 276 277 277 279 280 280 280 281 279 279 279 277 276
256 257 258 259 259 260 260 262 263 261 260 260 261 263 262 262 262 261 259 259 261 263 265 268 271 272 274 275 274 275 276 276 277 278 279 280 282 281 281 279 277 277 277 276
Height
5852 5855 5856 5858 5860 5862 5864 5866 5867 5868 5868 5869 5870 5870 5871 5871 5872 5872 5873 5873 5873 5873 5873 5872 5872 5871 5871 5871 5871 5870 5869 5868 5868 5868 5868 5869 5868 5868 5868 5868 5868 5867 5867 5867
5850 5851 5853 5855 5857 5859 5861 5863 5864 5865 5866 5866 5867 5868 5869 5869 5869 5870 5870 5871 5871 5871 5870 5870 5870 5869 5869 5869 5868 5868 5867 5866 5866 5866 5866 5866 5866 5866 5866 5866 5866 5866 5865 5864
5846 5849 5850 5852 5853 5855 5858 5860 5861 5862 5862 5863 5864 5865 5866 5867 5867 5867 5868 5868 5868 5868 5868 5867 5867 5867 5867 5867 5866 5866 5865 5864 5864 5863 5864 5864 5864 5864 5864 5863 5863 5863 5863 5862
5842 5844 5846 5848 5850 5852 5854 5856 5858 5858 5859 5860 5861 5862 5863 5864 5864 5864 5865 5866 5866 5866 5865 5865 5865 5864 5864 5864 5864 5863 5863 5862 5862 5861 5861 5861 5861 5861 5861 5860 5860 5860 5860 5860
5839 5841 5842 5844 5847 5849 5851 5852 5853 5854 5855 5856 5857 5858 5860 5860 5861 5861 5862 5863 5863 5863 5863 5862 5862 5862 5861 5861 5860 5860 5860 5859 5859 5859 5859 5858 5858 5858 5858 5858 5858 5858 5858 5857
5835 5837 5839 5841 5843 5845 5846 5848 5849 5849 5850 5852 5854 5854 5856 5857 5857 5858 5859 5859 5860 5859 5859 5859 5859 5858 5858 5857 5857 5856 5856 5856 5856 5856 5856 5856 5855 5855 5855 5855 5854 5854 5854 5854
5831 5833 5835 5837 5839 5841 5842 5844 5845 5845 5846 5848 5850 5849 5852 5853 5854 5854 5855 5856 5856 5856 5856 5856 5855 5855 5854 5854 5853 5853 5853 5853 5853 5853 5853 5852 5852 5852 5852 5851 5851 5851 5851 5850
5826 5829 5831 5833 5835 5837 5838 5840 5842 5842 5843 5844 5845 5845 5848 5849 5849 5850 5851 5852 5852 5852 5852 5852 5851 5851 5850 5850 5849 5849 5849 5849 5849 5849 5849 5849 5848 5848 5848 5848 5847 5847 5846 5846
5822 5825 5827 5829 5831 5833 5834 5835 5837 5838 5838 5839 5840 5841 5843 5844 5845 5846 5846 5847 5847 5847 5847 5847 5847 5846 5846 5845 5845 5845 5846 5845 5845 5845 5845 5845 5845 5844 5844 5843 5843 5843 5842 5842
5817 5820 5822 5824 5826 5827 5830 5831 5832 5833 5833 5833 5835 5836 5839 5840 5841 5841 5842 5842 5843 5843 5842 5842 5842 5841 5841 5841 5841 5841 5841 5841 5840 5840 5840 5840 5840 5839 5839 5839 5838 5838 5837 5837
5811 5814 5817 5819 5820 5823 5824 5826 5827 5828 5828 5829 5830 5834 5835 5835 5836 5836 5837 5837 5838 5838 5838 5838 5838 5837 5837 5837 5837 5837 5836 5836 5835 5836 5835 5835 5835 5834 5834 5833 5833 5833 5832 5832
5805 5808 5810 5813 5815 5817 5819 5821 5822 5823 5823 5824 5825 5830 5830 5830 5830 5831 5831 5832 5833 5833 5833 5833 5833 5833 5832 5832 5832 5832 5832 5831 5831 5830 5829 5829 5829 5829 5828 5828 5828 5827 5827 5826
5799 5802 5804 5806 5810 5811 5812 5814 5816 5818 5819 5819 5820 5825 5824 5825 5825 5826 5827 5827 5828 5828 5828 5828 5828 5828 5828 5828 5827 5827 5826 5826 5825 5825 5824 5823 5823 5823 5823 5822 5822 5822 5821 5821
5793 5795 5798 5801 5803 5805 5806 5808 5810 5811 5812 5813 5815 5817 5819 5820 5821 5821 5822 5822 5823 5823 5823 5823 5823 5823 5823 5822 5822 5821 5821 5820 5820 5819 5818 5817 5817 5817 5816 5816 5816 5816 5815 5815
5786 5788 5791 5794 5796 5798 5800 5802 5804 5805 5806 5808 5810 5811 5813 5814 5815 5815 5816 5817 5817 5817 5817 5817 5817 5817 5817 5816 5816 5816 5815 5814 5813 5813 5812 5811 5811 5810 5810 5809 5809 5809 5809 5809
5779 5782 5784 5787 5789 5791 5793 5795 5797 5798 5800 5801 5803 5805 5807 5807 5808 5809 5809 5810 5811 5811 5811 5810 5810 5810 5810 5811 5811 5810 5809 5808 5807 5807 5806 5806 5805 5805 5804 5803 5803 5803 5802 5802
5773 5775 5778 5780 5782 5783 5785 5788 5789 5791 5792 5794 5796 5799 5799 5800 5801 5802 5802 5803 5803 5804 5804 5804 5804 5804 5804 5804 5804 5804 5803 5802 5801 5800 5799 5799 5799 5798 5797 5797 5797 5796 5795 5795
5766 5768 5770 5772 5775 5775 5780 5781 5782 5783 5785 5786 5788 5790 5792 5793 5794 5794 5795 5796 5796 5796 5797 5797 5797 5797 5797 5797 5797 5797 5797 5796 5795 5794 5793 5792 5792 5791 5791 5790 5790 5789 5789 5788
5759 5761 5763 5765 5766 5768 5772 5773 5774 5775 5777 5779 5780 5782 5783 5784 5785 5787 5788 5788 5789 5789 5789 5790 5790 5790 5790 5790 5790 5790 5789 5789 5788 5787 5786 5786 5785 5784 5784 5783 5782 5782 5781 5781
5752 5754 5756 5758 5759 5761 5766 5766 5767 5769 5770 5772 5772 5774 5775 5776 5778 5780 5780 5780 5781 5781 5781 5782 5783 5783 5783 5783 5783 5782 5783 5782 5781 5780 5779 5779 5778 5777 5776 5775 5775 5774 5774 5773
5745 5747 5749 5750 5752 5754 5757 5758 5759 5762 5764 5764 5764 5765 5767 5768 5770 5772 5772 5772 5773 5774 5774 5774 5774 5775 5775 5775 5775 5775 5775 5775 5774 5773 5772 5771 5770 5769 5768 5767 5766 5766 5765 5765
5738 5740 5742 5744 5745 5750 5750 5751 5752 5754 5755 5755 5756 5757 5758 5760 5761 5762 5763 5764 5765 5766 5766 5767 5767 5767 5767 5767 5768 5768 5767 5767 5766 5765 5764 5763 5762 5761 5760 5759 5758 5757 5757 5756
5732 5734 5735 5738 5741 5741 5742 5743 5744 5745 5746 5747 5748 5749 5751 5752 5753 5754 5755 5756 5757 5758 5758 5759 5759 5759 5759 5759 5759 5759 5758 5758 5757 5756 5755 5754 5753 5752 5750 5750 5749 5748 5748 5747
5725 5726 5728 5730 5732 5733 5734 5735 5736 5737 5738 5739 5740 5742 5743 5744 5745 5746 5747 5748 5749 5749 5750 5750 5750 5750 5750 5750 5749 5749 5749 5748 5748 5747 5746 5745 5744 5742 5741 5740 5739 5739 5738 5738
5718 5719 5720 5722 5724 5725 5727 5728 5728 5729 5730 5731 5732 5733 5734 5735 5736 5737 5738 5739 5740 5740 5741 5741 5741 5741 5741 5740 5740 5740 5739 5738 5737 5737 5736 5735 5734 5733 5732 5731 5730 5729 5729 5728
5711 5712 5713 5715 5716 5717 5719 5719 5720 5721 5722 5723 5724 5725 5726 5727 5727 5728 5729 5729 5730 5731 5731 5731 5731 5731 5731 5730 5730 5730 5729 5728 5728 5727 5727 5726 5724 5723 5722 5721 5720 5719 5718 5718